Location: ??????
(38.0131°N, 23.7723°E)
Time: 17:44:44
(UTC+00:00)

METEOR 2-5 DEB - Pass Details

Date: 19 August 2022
Orbit: 809 x 849 km, 81.2° (Epoch: 29 September)

Event Time Altitude Azimuth Distance (km) Brightness Sun altitude
Rises 20:04:43 0° 334° (NNW) 3,343 ? -29.2°
Reaches altitude 10° 20:07:42 10° 318° (NW) 2,403 ? -29.6°
Maximum altitude 20:11:32 20° 273° (W) 1,792 ? -30.1°
Enters shadow 20:14:11 14° 238° (WSW) 2,101 ? -30.4°
